Temp: 17.4°C   Baro: 1010.1mb
  Wind: 4.9mph   Dir: W (272°)
  Rain: 0.8mm (0.0mm/hr)
  Solar: 128W/m2  Hum: 90%
 
Bath Spa Weather Station Historical Data
Daily Summary for June 15, 2019 Units:  Both    English   Metric
Daily Weekly Monthly Yearly Custom
  High: Low: Average:
Temperature: 76.1 °F /  24.5 °C 52.3 °F /  11.3 °C 64.2 °F /  17.9 °C
Dew Point: 57.2 °F /  14 °C 48.4 °F /  9.1 °C 53.1 °F /  11.7 °C
Humidity: 87% 48% 68%
Wind Speed: 10mph /  16.1km/h - 1.7mph /  2.7km/h
Wind Gust: 11mph /  17.7km/h - -
Wind- - ESE
Pressure: 30.22 in /  1023.2 hPa 30.12 in /  1019.9 hPa -
Precipitation: 0.00 in /  0 mm    
Historical Graphs
 
 
Tabular Data for June 15, 2019
Time Temperature Dew Point Pressure Wind Wind Speed Wind Gust Humidity Rainfall Rate (Hourly) solar
00:04 61.3 °F /  16.3 °C 53.1 °F /  11.7 °C 30.21in /  1022.9hPa ESE 4mph /  6.4km/h 5mph /  8km/h 74% 0.00in /  0mm 0 W/m2
00:09 61.2 °F /  16.2 °C 52.9 °F /  11.6 °C 30.21in /  1022.9hPa NE 2.9mph /  4.7km/h 3mph /  4.8km/h 74% 0.00in /  0mm 0 W/m2
00:14 61 °F /  16.1 °C 53.1 °F /  11.7 °C 30.21in /  1022.9hPa Calm   3mph /  4.8km/h 75% 0.00in /  0mm 0 W/m2
00:19 60.8 °F /  16 °C 52.9 °F /  11.6 °C 30.21in /  1022.9hPa NE 2mph /  3.2km/h 3mph /  4.8km/h 75% 0.00in /  0mm 0 W/m2
00:24 60.6 °F /  15.9 °C 52.7 °F /  11.5 °C 30.21in /  1022.9hPa Calm   4mph /  6.4km/h 75% 0.00in /  0mm 0 W/m2
00:29 60.6 °F /  15.9 °C 52.7 °F /  11.5 °C 30.21in /  1022.9hPa Calm   1mph /  1.6km/h 75% 0.00in /  0mm 0 W/m2
00:34 60.4 °F /  15.8 °C 52.5 °F /  11.4 °C 30.21in /  1022.9hPa ENE 2mph /  3.2km/h 4mph /  6.4km/h 75% 0.00in /  0mm 0 W/m2
00:39 60.3 °F /  15.7 °C 52.3 °F /  11.3 °C 30.22in /  1023.2hPa Calm   2mph /  3.2km/h 75% 0.00in /  0mm 0 W/m2
00:44 60.1 °F /  15.6 °C 52.2 °F /  11.2 °C 30.21in /  1022.9hPa Calm   3mph /  4.8km/h 75% 0.00in /  0mm 0 W/m2
00:49 59.9 °F /  15.5 °C 52 °F /  11.1 °C 30.21in /  1022.9hPa SE 0.9mph /  1.4km/h 4mph /  6.4km/h 75% 0.00in /  0mm 0 W/m2
00:54 59.9 °F /  15.5 °C 52 °F /  11.1 °C 30.22in /  1023.2hPa Calm   3mph /  4.8km/h 75% 0.00in /  0mm 0 W/m2
00:59 59.7 °F /  15.4 °C 51.8 °F /  11 °C 30.22in /  1023.2hPa Calm     75% 0.00in /  0mm 0 W/m2
01:04 59.7 °F /  15.4 °C 51.8 °F /  11 °C 30.22in /  1023.2hPa Calm     75% 0.00in /  0mm 0 W/m2
01:09 59.5 °F /  15.3 °C 52 °F /  11.1 °C 30.22in /  1023.2hPa Calm   2mph /  3.2km/h 76% 0.00in /  0mm 0 W/m2
01:14 59.4 °F /  15.2 °C 51.8 °F /  11 °C 30.22in /  1023.2hPa Calm   2mph /  3.2km/h 76% 0.00in /  0mm 0 W/m2
01:19 59.2 °F /  15.1 °C 51.6 °F /  10.9 °C 30.22in /  1023.2hPa SE 0.9mph /  1.4km/h 4mph /  6.4km/h 76% 0.00in /  0mm 0 W/m2
01:24 59 °F /  15 °C 51.8 °F /  11 °C 30.22in /  1023.2hPa Calm   1mph /  1.6km/h 77% 0.00in /  0mm 0 W/m2
01:29 58.8 °F /  14.9 °C 51.6 °F /  10.9 °C 30.22in /  1023.2hPa Calm   2mph /  3.2km/h 77% 0.00in /  0mm 0 W/m2
01:34 58.8 °F /  14.9 °C 52 °F /  11.1 °C 30.22in /  1023.2hPa ESE 3mph /  4.8km/h 3mph /  4.8km/h 78% 0.00in /  0mm 0 W/m2
01:39 58.6 °F /  14.8 °C 51.8 °F /  11 °C 30.22in /  1023.2hPa ESE 0.9mph /  1.4km/h 3mph /  4.8km/h 78% 0.00in /  0mm 0 W/m2
01:44 58.6 °F /  14.8 °C 51.8 °F /  11 °C 30.22in /  1023.2hPa ESE 0.9mph /  1.4km/h 2mph /  3.2km/h 78% 0.00in /  0mm 0 W/m2
01:49 58.6 °F /  14.8 °C 51.8 °F /  11 °C 30.22in /  1023.2hPa ESE 7mph /  11.3km/h 7mph /  11.3km/h 78% 0.00in /  0mm 0 W/m2
01:54 58.5 °F /  14.7 °C 51.6 °F /  10.9 °C 30.22in /  1023.2hPa Calm   2mph /  3.2km/h 78% 0.00in /  0mm 0 W/m2
01:59 58.5 °F /  14.7 °C 51.6 °F /  10.9 °C 30.22in /  1023.2hPa East 5mph /  8km/h 5mph /  8km/h 78% 0.00in /  0mm 0 W/m2
02:04 58.1 °F /  14.5 °C 51.6 °F /  10.9 °C 30.22in /  1023.2hPa NE 4mph /  6.4km/h 5mph /  8km/h 79% 0.00in /  0mm 0 W/m2
02:09 57.9 °F /  14.4 °C 51.4 °F /  10.8 °C 30.22in /  1023.2hPa ESE 2mph /  3.2km/h 5mph /  8km/h 79% 0.00in /  0mm 0 W/m2
02:14 57.9 °F /  14.4 °C 51.4 °F /  10.8 °C 30.22in /  1023.2hPa ESE 0.9mph /  1.4km/h 3mph /  4.8km/h 79% 0.00in /  0mm 0 W/m2
02:19 57.7 °F /  14.3 °C 51.3 °F /  10.7 °C 30.22in /  1023.2hPa SE 4mph /  6.4km/h 7mph /  11.3km/h 79% 0.00in /  0mm 0 W/m2
02:24 57.6 °F /  14.2 °C 51.4 °F /  10.8 °C 30.22in /  1023.2hPa Calm   5mph /  8km/h 80% 0.00in /  0mm 0 W/m2
02:29 57.6 °F /  14.2 °C 51.4 °F /  10.8 °C 30.22in /  1023.2hPa Calm   3mph /  4.8km/h 80% 0.00in /  0mm 0 W/m2
02:34 57.6 °F /  14.2 °C 51.4 °F /  10.8 °C 30.22in /  1023.2hPa Calm   1mph /  1.6km/h 80% 0.00in /  0mm 0 W/m2
02:39 57.2 °F /  14 °C 51.1 °F /  10.6 °C 30.22in /  1023.2hPa Calm   1mph /  1.6km/h 80% 0.00in /  0mm 0 W/m2
02:44 57.2 °F /  14 °C 51.1 °F /  10.6 °C 30.22in /  1023.2hPa ESE 2mph /  3.2km/h 2mph /  3.2km/h 80% 0.00in /  0mm 0 W/m2
02:49 57 °F /  13.9 °C 51.3 °F /  10.7 °C 30.22in /  1023.2hPa ESE 3mph /  4.8km/h 3mph /  4.8km/h 81% 0.00in /  0mm 0 W/m2
02:54 56.8 °F /  13.8 °C 51.1 °F /  10.6 °C 30.22in /  1023.2hPa ESE 2mph /  3.2km/h 2mph /  3.2km/h 81% 0.00in /  0mm 0 W/m2
02:59 56.7 °F /  13.7 °C 50.9 °F /  10.5 °C 30.22in /  1023.2hPa Calm   6mph /  9.7km/h 81% 0.00in /  0mm 0 W/m2
03:04 56.5 °F /  13.6 °C 50.7 °F /  10.4 °C 30.22in /  1023.2hPa ESE 0.9mph /  1.4km/h 3mph /  4.8km/h 81% 0.00in /  0mm 0 W/m2
03:09 56.3 °F /  13.5 °C 50.9 °F /  10.5 °C 30.22in /  1023.2hPa ESE 2mph /  3.2km/h 2mph /  3.2km/h 82% 0.00in /  0mm 0 W/m2
03:14 55.9 °F /  13.3 °C 50.5 °F /  10.3 °C 30.22in /  1023.2hPa Calm   2mph /  3.2km/h 82% 0.00in /  0mm 0 W/m2
03:19 55.8 °F /  13.2 °C 50.4 °F /  10.2 °C 30.21in /  1022.9hPa Calm   2mph /  3.2km/h 82% 0.00in /  0mm 0 W/m2
03:24 55.4 °F /  13 °C 50.4 °F /  10.2 °C 30.21in /  1022.9hPa Calm   2mph /  3.2km/h 83% 0.00in /  0mm 0 W/m2
03:29 55.2 °F /  12.9 °C 50.2 °F /  10.1 °C 30.21in /  1022.9hPa Calm   3mph /  4.8km/h 83% 0.00in /  0mm 0 W/m2
03:34 55 °F /  12.8 °C 50 °F /  10 °C 30.21in /  1022.9hPa ESE 0.9mph /  1.4km/h 3mph /  4.8km/h 83% 0.00in /  0mm 0 W/m2
03:39 55 °F /  12.8 °C 50.4 °F /  10.2 °C 30.21in /  1022.9hPa Calm   2mph /  3.2km/h 84% 0.00in /  0mm 0 W/m2
03:44 54.9 °F /  12.7 °C 50.2 °F /  10.1 °C 30.21in /  1022.9hPa Calm   3mph /  4.8km/h 84% 0.00in /  0mm 0 W/m2
03:49 54.5 °F /  12.5 °C 49.8 °F /  9.9 °C 30.21in /  1022.9hPa Calm   1mph /  1.6km/h 84% 0.00in /  0mm 0 W/m2
03:54 54.5 °F /  12.5 °C 49.8 °F /  9.9 °C 30.21in /  1022.9hPa Calm   1mph /  1.6km/h 84% 0.00in /  0mm 0 W/m2
03:59 54.5 °F /  12.5 °C 50 °F /  10 °C 30.21in /  1022.9hPa Calm   2mph /  3.2km/h 85% 0.00in /  0mm 0 W/m2
04:04 54.3 °F /  12.4 °C 49.6 °F /  9.8 °C 30.21in /  1022.9hPa Calm   3mph /  4.8km/h 84% 0.00in /  0mm 0 W/m2
04:09 54.1 °F /  12.3 °C 49.8 °F /  9.9 °C 30.21in /  1022.9hPa Calm     85% 0.00in /  0mm 0 W/m2
04:14 54.1 °F /  12.3 °C 49.8 °F /  9.9 °C 30.21in /  1022.9hPa Calm   1mph /  1.6km/h 85% 0.00in /  0mm 0 W/m2
04:19 54 °F /  12.2 °C 49.6 °F /  9.8 °C 30.21in /  1022.9hPa Calm   1mph /  1.6km/h 85% 0.00in /  0mm 0 W/m2
04:24 54 °F /  12.2 °C 49.6 °F /  9.8 °C 30.21in /  1022.9hPa Calm   1mph /  1.6km/h 85% 0.00in /  0mm 0 W/m2
04:29 53.8 °F /  12.1 °C 49.5 °F /  9.7 °C 30.21in /  1022.9hPa Calm     85% 0.00in /  0mm 0 W/m2
04:34 53.6 °F /  12 °C 49.3 °F /  9.6 °C 30.21in /  1022.9hPa Calm     85% 0.00in /  0mm 0 W/m2
04:39 53.6 °F /  12 °C 49.3 °F /  9.6 °C 30.21in /  1022.9hPa Calm   3mph /  4.8km/h 85% 0.00in /  0mm 0 W/m2
04:44 53.4 °F /  11.9 °C 49.1 °F /  9.5 °C 30.21in /  1022.9hPa Calm     85% 0.00in /  0mm 0 W/m2
04:49 53.4 °F /  11.9 °C 49.3 °F /  9.6 °C 30.21in /  1022.9hPa Calm   1mph /  1.6km/h 86% 0.00in /  0mm 0 W/m2
04:54 53.2 °F /  11.8 °C 49.1 °F /  9.5 °C 30.21in /  1022.9hPa Calm   1mph /  1.6km/h 86% 0.00in /  0mm 0 W/m2
04:59 53.1 °F /  11.7 °C 48.9 °F /  9.4 °C 30.21in /  1022.9hPa Calm     86% 0.00in /  0mm 0 W/m2
05:04 52.9 °F /  11.6 °C 48.7 °F /  9.3 °C 30.21in /  1022.9hPa Calm     86% 0.00in /  0mm 0 W/m2
05:09 52.9 °F /  11.6 °C 48.7 °F /  9.3 °C 30.21in /  1022.9hPa Calm     86% 0.00in /  0mm 0 W/m2
05:14 52.7 °F /  11.5 °C 48.6 °F /  9.2 °C 30.21in /  1022.9hPa Calm   2mph /  3.2km/h 86% 0.00in /  0mm 5 W/m2
05:19 52.7 °F /  11.5 °C 48.6 °F /  9.2 °C 30.21in /  1022.9hPa Calm   1mph /  1.6km/h 86% 0.00in /  0mm 7 W/m2
05:24 52.5 °F /  11.4 °C 48.7 °F /  9.3 °C 30.21in /  1022.9hPa ESE 2mph /  3.2km/h 4mph /  6.4km/h 87% 0.00in /  0mm 9 W/m2
05:29 52.5 °F /  11.4 °C 48.4 °F /  9.1 °C 30.21in /  1022.9hPa ESE 0.9mph /  1.4km/h 2mph /  3.2km/h 86% 0.00in /  0mm 11 W/m2
05:34 52.5 °F /  11.4 °C 48.7 °F /  9.3 °C 30.21in /  1022.9hPa ESE 2mph /  3.2km/h 3mph /  4.8km/h 87% 0.00in /  0mm 12 W/m2
05:39 52.3 °F /  11.3 °C 48.6 °F /  9.2 °C 30.21in /  1022.9hPa Calm   2mph /  3.2km/h 87% 0.00in /  0mm 14 W/m2
05:44 52.3 °F /  11.3 °C 48.6 °F /  9.2 °C 30.21in /  1022.9hPa Calm   2mph /  3.2km/h 87% 0.00in /  0mm 16 W/m2
05:49 52.3 °F /  11.3 °C 48.6 °F /  9.2 °C 30.21in /  1022.9hPa Calm   1mph /  1.6km/h 87% 0.00in /  0mm 18 W/m2
05:54 52.3 °F /  11.3 °C 48.6 °F /  9.2 °C 30.21in /  1022.9hPa ESE 0.9mph /  1.4km/h 2mph /  3.2km/h 87% 0.00in /  0mm 19 W/m2
05:59 52.3 °F /  11.3 °C 48.6 °F /  9.2 °C 30.21in /  1022.9hPa Calm   2mph /  3.2km/h 87% 0.00in /  0mm 23 W/m2
06:04 52.3 °F /  11.3 °C 48.6 °F /  9.2 °C 30.21in /  1022.9hPa Calm     87% 0.00in /  0mm 25 W/m2
06:09 52.3 °F /  11.3 °C 48.6 °F /  9.2 °C 30.21in /  1022.9hPa Calm     87% 0.00in /  0mm 26 W/m2
06:14 52.5 °F /  11.4 °C 48.7 °F /  9.3 °C 30.22in /  1023.2hPa Calm     87% 0.00in /  0mm 28 W/m2
06:19 52.7 °F /  11.5 °C 48.9 °F /  9.4 °C 30.22in /  1023.2hPa Calm   1mph /  1.6km/h 87% 0.00in /  0mm 30 W/m2
06:24 52.9 °F /  11.6 °C 49.1 °F /  9.5 °C 30.22in /  1023.2hPa Calm   1mph /  1.6km/h 87% 0.00in /  0mm 32 W/m2
06:29 53.1 °F /  11.7 °C 49.3 °F /  9.6 °C 30.22in /  1023.2hPa Calm   1mph /  1.6km/h 87% 0.00in /  0mm 33 W/m2
06:34 53.2 °F /  11.8 °C 49.5 °F /  9.7 °C 30.21in /  1022.9hPa Calm   1mph /  1.6km/h 87% 0.00in /  0mm 37 W/m2
06:39 53.2 °F /  11.8 °C 49.5 °F /  9.7 °C 30.21in /  1022.9hPa Calm   1mph /  1.6km/h 87% 0.00in /  0mm 40 W/m2
06:44 53.2 °F /  11.8 °C 49.5 °F /  9.7 °C 30.21in /  1022.9hPa Calm   2mph /  3.2km/h 87% 0.00in /  0mm 46 W/m2
06:49 53.4 °F /  11.9 °C 49.6 °F /  9.8 °C 30.22in /  1023.2hPa ESE 0.9mph /  1.4km/h 2mph /  3.2km/h 87% 0.00in /  0mm 54 W/m2
06:54 53.6 °F /  12 °C 49.8 °F /  9.9 °C 30.22in /  1023.2hPa ESE 2.9mph /  4.7km/h 3mph /  4.8km/h 87% 0.00in /  0mm 67 W/m2
06:59 54 °F /  12.2 °C 50.2 °F /  10.1 °C 30.22in /  1023.2hPa ESE 0.9mph /  1.4km/h 1mph /  1.6km/h 87% 0.00in /  0mm 79 W/m2
07:04 54.5 °F /  12.5 °C 50.7 °F /  10.4 °C 30.22in /  1023.2hPa East 2.9mph /  4.7km/h 3mph /  4.8km/h 87% 0.00in /  0mm 95 W/m2
07:09 55 °F /  12.8 °C 50.9 °F /  10.5 °C 30.21in /  1022.9hPa ENE 0.9mph /  1.4km/h 5mph /  8km/h 86% 0.00in /  0mm 111 W/m2
07:14 55.4 °F /  13 °C 51.3 °F /  10.7 °C 30.22in /  1023.2hPa Calm   3mph /  4.8km/h 86% 0.00in /  0mm 123 W/m2
07:19 55.8 °F /  13.2 °C 51.3 °F /  10.7 °C 30.22in /  1023.2hPa Calm   3mph /  4.8km/h 85% 0.00in /  0mm 142 W/m2
07:24 55.9 °F /  13.3 °C 51.3 °F /  10.7 °C 30.22in /  1023.2hPa Calm   2mph /  3.2km/h 84% 0.00in /  0mm 158 W/m2
07:29 56.3 °F /  13.5 °C 51.4 °F /  10.8 °C 30.22in /  1023.2hPa Calm   3mph /  4.8km/h 84% 0.00in /  0mm 174 W/m2
07:34 56.7 °F /  13.7 °C 51.6 °F /  10.9 °C 30.22in /  1023.2hPa East 2.9mph /  4.7km/h 4mph /  6.4km/h 83% 0.00in /  0mm 192 W/m2
07:39 56.8 °F /  13.8 °C 51.4 °F /  10.8 °C 30.22in /  1023.2hPa ESE 6.9mph /  11.1km/h 7mph /  11.3km/h 82% 0.00in /  0mm 207 W/m2
07:44 57 °F /  13.9 °C 51.6 °F /  10.9 °C 30.22in /  1023.2hPa ESE 4mph /  6.4km/h 6mph /  9.7km/h 82% 0.00in /  0mm 221 W/m2
07:49 57 °F /  13.9 °C 51.3 °F /  10.7 °C 30.22in /  1023.2hPa NNE 2.9mph /  4.7km/h 9mph /  14.5km/h 81% 0.00in /  0mm 237 W/m2
07:54 57.6 °F /  14.2 °C 51.8 °F /  11 °C 30.22in /  1023.2hPa Calm   4mph /  6.4km/h 81% 0.00in /  0mm 253 W/m2
07:59 57.6 °F /  14.2 °C 51.4 °F /  10.8 °C 30.22in /  1023.2hPa Calm   4mph /  6.4km/h 80% 0.00in /  0mm 269 W/m2
08:04 57.2 °F /  14 °C 51.1 °F /  10.6 °C 30.22in /  1023.2hPa ESE 2mph /  3.2km/h 5mph /  8km/h 80% 0.00in /  0mm 287 W/m2
08:09 57.6 °F /  14.2 °C 51.4 °F /  10.8 °C 30.22in /  1023.2hPa East 2.9mph /  4.7km/h 5mph /  8km/h 80% 0.00in /  0mm 302 W/m2
08:14 57.6 °F /  14.2 °C 51.1 °F /  10.6 °C 30.22in /  1023.2hPa ESE 4mph /  6.4km/h 6mph /  9.7km/h 79% 0.00in /  0mm 320 W/m2
08:19 57.9 °F /  14.4 °C 51.4 °F /  10.8 °C 30.22in /  1023.2hPa East 2.9mph /  4.7km/h 4mph /  6.4km/h 79% 0.00in /  0mm 338 W/m2
08:24 58.3 °F /  14.6 °C 51.8 °F /  11 °C 30.22in /  1023.2hPa ENE 0.9mph /  1.4km/h 4mph /  6.4km/h 79% 0.00in /  0mm 353 W/m2
08:29 58.8 °F /  14.9 °C 52 °F /  11.1 °C 30.22in /  1023.2hPa ENE 2.9mph /  4.7km/h 5mph /  8km/h 78% 0.00in /  0mm 374 W/m2
08:34 60.1 °F /  15.6 °C 52.9 °F /  11.6 °C 30.22in /  1023.2hPa ESE 2mph /  3.2km/h 5mph /  8km/h 77% 0.00in /  0mm 404 W/m2
08:39 60.6 °F /  15.9 °C 52.3 °F /  11.3 °C 30.22in /  1023.2hPa Calm   9mph /  14.5km/h 74% 0.00in /  0mm 406 W/m2
08:44 61 °F /  16.1 °C 52.3 °F /  11.3 °C 30.22in /  1023.2hPa SE 2mph /  3.2km/h 7mph /  11.3km/h 73% 0.00in /  0mm 431 W/m2
08:49 59.7 °F /  15.4 °C 51.1 °F /  10.6 °C 30.22in /  1023.2hPa SE 4.9mph /  7.9km/h 5mph /  8km/h 73% 0.00in /  0mm 459 W/m2
08:54 59.9 °F /  15.5 °C 51.3 °F /  10.7 °C 30.22in /  1023.2hPa SE 0.9mph /  1.4km/h 8mph /  12.9km/h 73% 0.00in /  0mm 450 W/m2
08:59 60.4 °F /  15.8 °C 51.1 °F /  10.6 °C 30.22in /  1023.2hPa SE 2.9mph /  4.7km/h 6mph /  9.7km/h 71% 0.00in /  0mm 468 W/m2
09:04 60.3 °F /  15.7 °C 51.3 °F /  10.7 °C 30.22in /  1023.2hPa ESE 2mph /  3.2km/h 4mph /  6.4km/h 72% 0.00in /  0mm 478 W/m2
09:09 61 °F /  16.1 °C 51.4 °F /  10.8 °C 30.22in /  1023.2hPa ESE 4.9mph /  7.9km/h 7mph /  11.3km/h 71% 0.00in /  0mm 482 W/m2
09:14 60.6 °F /  15.9 °C 50.7 °F /  10.4 °C 30.22in /  1023.2hPa SE 2mph /  3.2km/h 7mph /  11.3km/h 70% 0.00in /  0mm 501 W/m2
09:19 61.5 °F /  16.4 °C 52 °F /  11.1 °C 30.22in /  1023.2hPa East 4mph /  6.4km/h 7mph /  11.3km/h 71% 0.00in /  0mm 519 W/m2
09:24 62.4 °F /  16.9 °C 52.2 °F /  11.2 °C 30.22in /  1023.2hPa ESE 2.9mph /  4.7km/h 6mph /  9.7km/h 69% 0.00in /  0mm 529 W/m2
09:29 60.8 °F /  16 °C 50.9 °F /  10.5 °C 30.22in /  1023.2hPa SE 4mph /  6.4km/h 7mph /  11.3km/h 70% 0.00in /  0mm 554 W/m2
09:34 61.3 °F /  16.3 °C 51.4 °F /  10.8 °C 30.22in /  1023.2hPa SE 2.9mph /  4.7km/h 8mph /  12.9km/h 70% 0.00in /  0mm 578 W/m2
09:39 62.2 °F /  16.8 °C 52.3 °F /  11.3 °C 30.22in /  1023.2hPa NE 0.9mph /  1.4km/h 3mph /  4.8km/h 70% 0.00in /  0mm 582 W/m2
09:44 63.1 °F /  17.3 °C 52.3 °F /  11.3 °C 30.22in /  1023.2hPa ESE 2mph /  3.2km/h 9mph /  14.5km/h 68% 0.00in /  0mm 584 W/m2
09:49 63.5 °F /  17.5 °C 52.3 °F /  11.3 °C 30.22in /  1023.2hPa SSE 0.9mph /  1.4km/h 5mph /  8km/h 67% 0.00in /  0mm 606 W/m2
09:54 63.9 °F /  17.7 °C 52.7 °F /  11.5 °C 30.22in /  1023.2hPa ESE 4mph /  6.4km/h 9mph /  14.5km/h 67% 0.00in /  0mm 619 W/m2
09:59 63.7 °F /  17.6 °C 51.6 °F /  10.9 °C 30.22in /  1023.2hPa NE 4mph /  6.4km/h 9mph /  14.5km/h 65% 0.00in /  0mm 626 W/m2
10:04 63.9 °F /  17.7 °C 52.7 °F /  11.5 °C 30.22in /  1023.2hPa NE 2.9mph /  4.7km/h 7mph /  11.3km/h 67% 0.00in /  0mm 628 W/m2
10:09 64 °F /  17.8 °C 52 °F /  11.1 °C 30.21in /  1022.9hPa NNE 2.9mph /  4.7km/h 8mph /  12.9km/h 65% 0.00in /  0mm 645 W/m2
10:14 63.9 °F /  17.7 °C 52.3 °F /  11.3 °C 30.21in /  1022.9hPa ENE 0.9mph /  1.4km/h 8mph /  12.9km/h 66% 0.00in /  0mm 664 W/m2
10:19 63.1 °F /  17.3 °C 52 °F /  11.1 °C 30.21in /  1022.9hPa Calm   3mph /  4.8km/h 67% 0.00in /  0mm 693 W/m2
10:24 64 °F /  17.8 °C 52.5 °F /  11.4 °C 30.21in /  1022.9hPa ESE 2mph /  3.2km/h 8mph /  12.9km/h 66% 0.00in /  0mm 677 W/m2
10:29 64.2 °F /  17.9 °C 52.7 °F /  11.5 °C 30.21in /  1022.9hPa ENE 2mph /  3.2km/h 9mph /  14.5km/h 66% 0.00in /  0mm 677 W/m2
10:34 64.2 °F /  17.9 °C 52.2 °F /  11.2 °C 30.21in /  1022.9hPa Calm   1mph /  1.6km/h 65% 0.00in /  0mm 742 W/m2
10:39 65.1 °F /  18.4 °C 52.2 °F /  11.2 °C 30.21in /  1022.9hPa SE 0.9mph /  1.4km/h 9mph /  14.5km/h 63% 0.00in /  0mm 749 W/m2
10:44 65.1 °F /  18.4 °C 52.7 °F /  11.5 °C 30.21in /  1022.9hPa East 2.9mph /  4.7km/h 5mph /  8km/h 64% 0.00in /  0mm 751 W/m2
10:49 65.1 °F /  18.4 °C 53.4 °F /  11.9 °C 30.21in /  1022.9hPa North 4.9mph /  7.9km/h 5mph /  8km/h 66% 0.00in /  0mm 742 W/m2
10:54 65.3 °F /  18.5 °C 54.5 °F /  12.5 °C 30.21in /  1022.9hPa ENE 4.9mph /  7.9km/h 8mph /  12.9km/h 68% 0.00in /  0mm 737 W/m2
10:59 65.7 °F /  18.7 °C 54.9 °F /  12.7 °C 30.21in /  1022.9hPa ESE 2mph /  3.2km/h 7mph /  11.3km/h 68% 0.00in /  0mm 749 W/m2
11:04 64.9 °F /  18.3 °C 54.1 °F /  12.3 °C 30.21in /  1022.9hPa NNE 2.9mph /  4.7km/h 8mph /  12.9km/h 68% 0.00in /  0mm 756 W/m2
11:09 65.5 °F /  18.6 °C 55 °F /  12.8 °C 30.21in /  1022.9hPa ENE 2.9mph /  4.7km/h 6mph /  9.7km/h 69% 0.00in /  0mm 759 W/m2
11:14 66.4 °F /  19.1 °C 54.7 °F /  12.6 °C 30.21in /  1022.9hPa Calm   6mph /  9.7km/h 66% 0.00in /  0mm 773 W/m2
11:19 67.1 °F /  19.5 °C 55.8 °F /  13.2 °C 30.21in /  1022.9hPa SE 2.9mph /  4.7km/h 8mph /  12.9km/h 67% 0.00in /  0mm 807 W/m2
11:24 66.4 °F /  19.1 °C 55 °F /  12.8 °C 30.20in /  1022.6hPa NNW 2.9mph /  4.7km/h 6mph /  9.7km/h 67% 0.00in /  0mm 796 W/m2
11:29 67.5 °F /  19.7 °C 55.8 °F /  13.2 °C 30.21in /  1022.9hPa ESE 2mph /  3.2km/h 5mph /  8km/h 66% 0.00in /  0mm 185 W/m2
11:34 66.2 °F /  19 °C 54.1 °F /  12.3 °C 30.21in /  1022.9hPa NNE 2mph /  3.2km/h 11mph /  17.7km/h 65% 0.00in /  0mm 788 W/m2
11:39 66.2 °F /  19 °C 54.1 °F /  12.3 °C 30.21in /  1022.9hPa SSE 2mph /  3.2km/h 7mph /  11.3km/h 65% 0.00in /  0mm 789 W/m2
11:44 66.7 °F /  19.3 °C 55 °F /  12.8 °C 30.21in /  1022.9hPa ESE 2.9mph /  4.7km/h 3mph /  4.8km/h 66% 0.00in /  0mm 814 W/m2
11:49 66.6 °F /  19.2 °C 55.2 °F /  12.9 °C 30.21in /  1022.9hPa ESE 4mph /  6.4km/h 7mph /  11.3km/h 67% 0.00in /  0mm 812 W/m2
11:54 66.6 °F /  19.2 °C 54.9 °F /  12.7 °C 30.20in /  1022.6hPa South 6.9mph /  11.1km/h 7mph /  11.3km/h 66% 0.00in /  0mm 809 W/m2
11:59 65.8 °F /  18.8 °C 54.5 °F /  12.5 °C 30.20in /  1022.6hPa South 4mph /  6.4km/h 10mph /  16.1km/h 67% 0.00in /  0mm 817 W/m2
12:04 64 °F /  17.8 °C 53.6 °F /  12 °C 30.20in /  1022.6hPa SSE 0.9mph /  1.4km/h 8mph /  12.9km/h 69% 0.00in /  0mm 830 W/m2
12:09 67.6 °F /  19.8 °C 55.4 °F /  13 °C 30.20in /  1022.6hPa NNE 4mph /  6.4km/h 10mph /  16.1km/h 65% 0.00in /  0mm 840 W/m2
12:14 68.2 °F /  20.1 °C 56.3 °F /  13.5 °C 30.20in /  1022.6hPa ESE 2.9mph /  4.7km/h 7mph /  11.3km/h 66% 0.00in /  0mm 838 W/m2
12:19 69.8 °F /  21 °C 54.9 °F /  12.7 °C 30.20in /  1022.6hPa ESE 4.9mph /  7.9km/h 8mph /  12.9km/h 59% 0.00in /  0mm 863 W/m2
12:24 67.3 °F /  19.6 °C 54.7 °F /  12.6 °C 30.20in /  1022.6hPa South 4.9mph /  7.9km/h 9mph /  14.5km/h 64% 0.00in /  0mm 870 W/m2
12:29 68.5 °F /  20.3 °C 55.9 °F /  13.3 °C 30.20in /  1022.6hPa East 6.9mph /  11.1km/h 8mph /  12.9km/h 64% 0.00in /  0mm 860 W/m2
12:34 70.2 °F /  21.2 °C 56.5 °F /  13.6 °C 30.20in /  1022.6hPa Calm   4mph /  6.4km/h 62% 0.00in /  0mm 879 W/m2
12:39 70 °F /  21.1 °C 55.4 °F /  13 °C 30.20in /  1022.6hPa ESE 2.9mph /  4.7km/h 11mph /  17.7km/h 60% 0.00in /  0mm 860 W/m2
12:44 69.3 °F /  20.7 °C 54.3 °F /  12.4 °C 30.20in /  1022.6hPa SSE 4mph /  6.4km/h 9mph /  14.5km/h 59% 0.00in /  0mm 858 W/m2
12:49 66.6 °F /  19.2 °C 55.2 °F /  12.9 °C 30.19in /  1022.2hPa Calm   2mph /  3.2km/h 67% 0.00in /  0mm 874 W/m2
12:54 68 °F /  20 °C 55.4 °F /  13 °C 30.19in /  1022.2hPa NE 2.9mph /  4.7km/h 8mph /  12.9km/h 64% 0.00in /  0mm 856 W/m2
12:59 70.7 °F /  21.5 °C 56.1 °F /  13.4 °C 30.19in /  1022.2hPa ESE 6.9mph /  11.1km/h 7mph /  11.3km/h 60% 0.00in /  0mm 847 W/m2
13:04 70 °F /  21.1 °C 55 °F /  12.8 °C 30.19in /  1022.2hPa Calm   6mph /  9.7km/h 59% 0.00in /  0mm 853 W/m2
13:09 70.2 °F /  21.2 °C 56.1 °F /  13.4 °C 30.19in /  1022.2hPa NE 2.9mph /  4.7km/h 5mph /  8km/h 61% 0.00in /  0mm 919 W/m2
13:14 70.7 °F /  21.5 °C 56.7 °F /  13.7 °C 30.19in /  1022.2hPa ESE 10mph /  16.1km/h 10mph /  16.1km/h 61% 0.00in /  0mm 902 W/m2
13:19 70.5 °F /  21.4 °C 55.9 °F /  13.3 °C 30.19in /  1022.2hPa NE 6.9mph /  11.1km/h 7mph /  11.3km/h 60% 0.00in /  0mm 935 W/m2
13:24 71.8 °F /  22.1 °C 56.1 °F /  13.4 °C 30.19in /  1022.2hPa ESE 2mph /  3.2km/h 6mph /  9.7km/h 58% 0.00in /  0mm 916 W/m2
13:29 72.3 °F /  22.4 °C 56.3 °F /  13.5 °C 30.19in /  1022.2hPa East 2mph /  3.2km/h 3mph /  4.8km/h 57% 0.00in /  0mm 921 W/m2
13:34 72.9 °F /  22.7 °C 56.7 °F /  13.7 °C 30.18in /  1021.9hPa ESE 4.9mph /  7.9km/h 8mph /  12.9km/h 57% 0.00in /  0mm 918 W/m2
13:39 72.5 °F /  22.5 °C 56.8 °F /  13.8 °C 30.18in /  1021.9hPa ESE 2.9mph /  4.7km/h 8mph /  12.9km/h 58% 0.00in /  0mm 891 W/m2
13:44 72.7 °F /  22.6 °C 57 °F /  13.9 °C 30.18in /  1021.9hPa ESE 4mph /  6.4km/h 6mph /  9.7km/h 58% 0.00in /  0mm 937 W/m2
13:49 73.2 °F /  22.9 °C 57 °F /  13.9 °C 30.18in /  1021.9hPa SE 2.9mph /  4.7km/h 3mph /  4.8km/h 57% 0.00in /  0mm 974 W/m2
13:54 73 °F /  22.8 °C 56.5 °F /  13.6 °C 30.18in /  1021.9hPa NE 6.9mph /  11.1km/h 8mph /  12.9km/h 56% 0.00in /  0mm 237 W/m2
13:59 69.8 °F /  21 °C 55.2 °F /  12.9 °C 30.18in /  1021.9hPa SW 4mph /  6.4km/h 4mph /  6.4km/h 60% 0.00in /  0mm 933 W/m2
14:04 71.8 °F /  22.1 °C 56.7 °F /  13.7 °C 30.18in /  1021.9hPa Calm   5mph /  8km/h 59% 0.00in /  0mm 946 W/m2
14:09 72.5 °F /  22.5 °C 55.9 °F /  13.3 °C 30.18in /  1021.9hPa NNE 4mph /  6.4km/h 6mph /  9.7km/h 56% 0.00in /  0mm 970 W/m2
14:14 72.5 °F /  22.5 °C 56.8 °F /  13.8 °C 30.18in /  1021.9hPa NE 6.9mph /  11.1km/h 7mph /  11.3km/h 58% 0.00in /  0mm 949 W/m2
14:19 70.3 °F /  21.3 °C 55.8 °F /  13.2 °C 30.17in /  1021.6hPa Calm   3mph /  4.8km/h 60% 0.00in /  0mm 974 W/m2
14:24 71.2 °F /  21.8 °C 55.8 °F /  13.2 °C 30.17in /  1021.6hPa NE 2.9mph /  4.7km/h 8mph /  12.9km/h 58% 0.00in /  0mm 206 W/m2
14:29 70.7 °F /  21.5 °C 56.1 °F /  13.4 °C 30.17in /  1021.6hPa Calm   1mph /  1.6km/h 60% 0.00in /  0mm 271 W/m2
14:34 73.4 °F /  23 °C 57.2 °F /  14 °C 30.17in /  1021.6hPa SE 4mph /  6.4km/h 5mph /  8km/h 57% 0.00in /  0mm 879 W/m2
14:39 72.7 °F /  22.6 °C 56.5 °F /  13.6 °C 30.17in /  1021.6hPa NNE 2.9mph /  4.7km/h 3mph /  4.8km/h 57% 0.00in /  0mm 905 W/m2
14:44 73 °F /  22.8 °C 56.5 °F /  13.6 °C 30.17in /  1021.6hPa SE 2mph /  3.2km/h 6mph /  9.7km/h 56% 0.00in /  0mm 902 W/m2
14:49 73.8 °F /  23.2 °C 56.7 °F /  13.7 °C 30.17in /  1021.6hPa SSE 4mph /  6.4km/h 8mph /  12.9km/h 55% 0.00in /  0mm 902 W/m2
14:54 72.1 °F /  22.3 °C 55 °F /  12.8 °C 30.17in /  1021.6hPa NW 4mph /  6.4km/h 8mph /  12.9km/h 55% 0.00in /  0mm 877 W/m2
14:59 71.2 °F /  21.8 °C 55.8 °F /  13.2 °C 30.16in /  1021.2hPa Calm   6mph /  9.7km/h 58% 0.00in /  0mm 911 W/m2
15:04 72.1 °F /  22.3 °C 56.5 °F /  13.6 °C 30.16in /  1021.2hPa ESE 4.9mph /  7.9km/h 7mph /  11.3km/h 58% 0.00in /  0mm 907 W/m2
15:09 74.8 °F /  23.8 °C 56.5 °F /  13.6 °C 30.16in /  1021.2hPa ENE 2mph /  3.2km/h 6mph /  9.7km/h 53% 0.00in /  0mm 847 W/m2
15:14 76.1 °F /  24.5 °C 56.7 °F /  13.7 °C 30.16in /  1021.2hPa NE 10mph /  16.1km/h 10mph /  16.1km/h 51% 0.00in /  0mm 830 W/m2
15:19 72.9 °F /  22.7 °C 55.8 °F /  13.2 °C 30.16in /  1021.2hPa NE 4mph /  6.4km/h 8mph /  12.9km/h 55% 0.00in /  0mm 860 W/m2
15:24 72.5 °F /  22.5 °C 55.4 °F /  13 °C 30.16in /  1021.2hPa Calm   3mph /  4.8km/h 55% 0.00in /  0mm 847 W/m2
15:29 73.9 °F /  23.3 °C 56.3 °F /  13.5 °C 30.16in /  1021.2hPa Calm   8mph /  12.9km/h 54% 0.00in /  0mm 192 W/m2
15:34 74.1 °F /  23.4 °C 55.9 °F /  13.3 °C 30.16in /  1021.2hPa SE 4mph /  6.4km/h 4mph /  6.4km/h 53% 0.00in /  0mm 846 W/m2
15:38 71.2 °F /  21.8 °C 54.7 °F /  12.6 °C 30.16in /  1021.2hPa South 4.9mph /  7.9km/h 6mph /  9.7km/h 56% 0.00in /  0mm 810 W/m2
15:44 72.5 °F /  22.5 °C 55.9 °F /  13.3 °C 30.16in /  1021.2hPa ESE 4mph /  6.4km/h 5mph /  8km/h 56% 0.00in /  0mm 814 W/m2
15:49 73.8 °F /  23.2 °C 56.1 °F /  13.4 °C 30.16in /  1021.2hPa SE 0.9mph /  1.4km/h 3mph /  4.8km/h 54% 0.00in /  0mm 782 W/m2
15:54 74.7 °F /  23.7 °C 55.9 °F /  13.3 °C 30.16in /  1021.2hPa NNW 0.9mph /  1.4km/h 6mph /  9.7km/h 52% 0.00in /  0mm 805 W/m2
15:59 74.1 °F /  23.4 °C 55.4 °F /  13 °C 30.16in /  1021.2hPa North 2mph /  3.2km/h 6mph /  9.7km/h 52% 0.00in /  0mm 791 W/m2
16:04 73.2 °F /  22.9 °C 55 °F /  12.8 °C 30.16in /  1021.2hPa South 2.9mph /  4.7km/h 7mph /  11.3km/h 53% 0.00in /  0mm 176 W/m2
16:09 72.7 °F /  22.6 °C 54.5 °F /  12.5 °C 30.15in /  1020.9hPa SE 2mph /  3.2km/h 5mph /  8km/h 53% 0.00in /  0mm 758 W/m2
16:14 72.9 °F /  22.7 °C 55.2 °F /  12.9 °C 30.15in /  1020.9hPa ESE 0.9mph /  1.4km/h 8mph /  12.9km/h 54% 0.00in /  0mm 740 W/m2
16:19 73.9 °F /  23.3 °C 55.8 °F /  13.2 °C 30.15in /  1020.9hPa NNE 4.9mph /  7.9km/h 6mph /  9.7km/h 53% 0.00in /  0mm 738 W/m2
16:24 73.8 °F /  23.2 °C 55.6 °F /  13.1 °C 30.15in /  1020.9hPa NNE 2mph /  3.2km/h 6mph /  9.7km/h 53% 0.00in /  0mm 729 W/m2
16:29 73 °F /  22.8 °C 55.4 °F /  13 °C 30.15in /  1020.9hPa ESE 4.9mph /  7.9km/h 10mph /  16.1km/h 54% 0.00in /  0mm 714 W/m2
16:34 73.9 °F /  23.3 °C 55.8 °F /  13.2 °C 30.15in /  1020.9hPa East 4mph /  6.4km/h 5mph /  8km/h 53% 0.00in /  0mm 708 W/m2
16:39 73.4 °F /  23 °C 54.7 °F /  12.6 °C 30.15in /  1020.9hPa SE 2mph /  3.2km/h 5mph /  8km/h 52% 0.00in /  0mm 134 W/m2
16:44 72.9 °F /  22.7 °C 54.1 °F /  12.3 °C 30.15in /  1020.9hPa ESE 4.9mph /  7.9km/h 6mph /  9.7km/h 52% 0.00in /  0mm 663 W/m2
16:49 72.7 °F /  22.6 °C 54.5 °F /  12.5 °C 30.14in /  1020.5hPa ENE 2mph /  3.2km/h 8mph /  12.9km/h 53% 0.00in /  0mm 650 W/m2
16:54 72.5 °F /  22.5 °C 54.3 °F /  12.4 °C 30.14in /  1020.5hPa Calm   9mph /  14.5km/h 53% 0.00in /  0mm 638 W/m2
16:59 73 °F /  22.8 °C 55.4 °F /  13 °C 30.14in /  1020.5hPa ENE 4mph /  6.4km/h 4mph /  6.4km/h 54% 0.00in /  0mm 605 W/m2
17:04 74.1 °F /  23.4 °C 55.4 °F /  13 °C 30.14in /  1020.5hPa East 0.9mph /  1.4km/h 4mph /  6.4km/h 52% 0.00in /  0mm 592 W/m2
17:09 72.7 °F /  22.6 °C 53.4 °F /  11.9 °C 30.14in /  1020.5hPa ESE 2.9mph /  4.7km/h 8mph /  12.9km/h 51% 0.00in /  0mm 584 W/m2
17:14 73.2 °F /  22.9 °C 54.5 °F /  12.5 °C 30.14in /  1020.5hPa Calm   4mph /  6.4km/h 52% 0.00in /  0mm 557 W/m2
17:19 74.3 °F /  23.5 °C 55 °F /  12.8 °C 30.14in /  1020.5hPa NE 0.9mph /  1.4km/h 3mph /  4.8km/h 51% 0.00in /  0mm 162 W/m2
17:24 74.3 °F /  23.5 °C 55 °F /  12.8 °C 30.14in /  1020.5hPa SSE 4mph /  6.4km/h 6mph /  9.7km/h 51% 0.00in /  0mm 540 W/m2
17:29 73.8 °F /  23.2 °C 54.5 °F /  12.5 °C 30.13in /  1020.2hPa SE 0.9mph /  1.4km/h 4mph /  6.4km/h 51% 0.00in /  0mm 527 W/m2
17:34 74.8 °F /  23.8 °C 55.6 °F /  13.1 °C 30.13in /  1020.2hPa ENE 6mph /  9.7km/h 6mph /  9.7km/h 51% 0.00in /  0mm 512 W/m2
17:39 74.3 °F /  23.5 °C 53.4 °F /  11.9 °C 30.13in /  1020.2hPa Calm   3mph /  4.8km/h 48% 0.00in /  0mm 503 W/m2
17:44 73.4 °F /  23 °C 54.1 °F /  12.3 °C 30.13in /  1020.2hPa Calm   5mph /  8km/h 51% 0.00in /  0mm 490 W/m2
17:49 74.1 °F /  23.4 °C 55.4 °F /  13 °C 30.13in /  1020.2hPa ESE 6.9mph /  11.1km/h 7mph /  11.3km/h 52% 0.00in /  0mm 480 W/m2
17:54 74.3 °F /  23.5 °C 55 °F /  12.8 °C 30.13in /  1020.2hPa SSE 4mph /  6.4km/h 6mph /  9.7km/h 51% 0.00in /  0mm 462 W/m2
17:59 73.2 °F /  22.9 °C 54.5 °F /  12.5 °C 30.13in /  1020.2hPa SW 2mph /  3.2km/h 4mph /  6.4km/h 52% 0.00in /  0mm 448 W/m2
18:04 73.9 °F /  23.3 °C 55.2 °F /  12.9 °C 30.13in /  1020.2hPa ESE 2mph /  3.2km/h 8mph /  12.9km/h 52% 0.00in /  0mm 432 W/m2
18:09 74.5 °F /  23.6 °C 55.2 °F /  12.9 °C 30.13in /  1020.2hPa NE 2mph /  3.2km/h 6mph /  9.7km/h 51% 0.00in /  0mm 418 W/m2
18:14 74.3 °F /  23.5 °C 55 °F /  12.8 °C 30.13in /  1020.2hPa Calm   7mph /  11.3km/h 51% 0.00in /  0mm 394 W/m2
18:19 74.3 °F /  23.5 °C 55 °F /  12.8 °C 30.13in /  1020.2hPa ENE 0.9mph /  1.4km/h 7mph /  11.3km/h 51% 0.00in /  0mm 380 W/m2
18:24 73.9 °F /  23.3 °C 55.2 °F /  12.9 °C 30.13in /  1020.2hPa ENE 4.9mph /  7.9km/h 7mph /  11.3km/h 52% 0.00in /  0mm 360 W/m2
18:29 73.6 °F /  23.1 °C 54.9 °F /  12.7 °C 30.12in /  1019.9hPa SSE 0.9mph /  1.4km/h 5mph /  8km/h 52% 0.00in /  0mm 346 W/m2
18:34 73.6 °F /  23.1 °C 55.4 °F /  13 °C 30.12in /  1019.9hPa Calm   1mph /  1.6km/h 53% 0.00in /  0mm 348 W/m2
18:39 73.6 °F /  23.1 °C 54.3 °F /  12.4 °C 30.12in /  1019.9hPa Calm   4mph /  6.4km/h 51% 0.00in /  0mm 341 W/m2
18:44 73.8 °F /  23.2 °C 55 °F /  12.8 °C 30.12in /  1019.9hPa ESE 2.9mph /  4.7km/h 6mph /  9.7km/h 52% 0.00in /  0mm 327 W/m2
18:49 74.1 °F /  23.4 °C 54.9 °F /  12.7 °C 30.12in /  1019.9hPa ESE 0.9mph /  1.4km/h 6mph /  9.7km/h 51% 0.00in /  0mm 316 W/m2
18:54 74.8 °F /  23.8 °C 55.6 °F /  13.1 °C 30.12in /  1019.9hPa SE 4mph /  6.4km/h 7mph /  11.3km/h 51% 0.00in /  0mm 288 W/m2
18:59 75 °F /  23.9 °C 55.6 °F /  13.1 °C 30.12in /  1019.9hPa Calm   3mph /  4.8km/h 51% 0.00in /  0mm 271 W/m2
19:04 75.6 °F /  24.2 °C 55.6 °F /  13.1 °C 30.12in /  1019.9hPa Calm   5mph /  8km/h 50% 0.00in /  0mm 271 W/m2
19:09 75.7 °F /  24.3 °C 55.2 °F /  12.9 °C 30.13in /  1020.2hPa ESE 4mph /  6.4km/h 7mph /  11.3km/h 49% 0.00in /  0mm 218 W/m2
19:14 73.9 °F /  23.3 °C 54.1 °F /  12.3 °C 30.12in /  1019.9hPa SSE 2mph /  3.2km/h 6mph /  9.7km/h 50% 0.00in /  0mm 202 W/m2
19:19 72.1 °F /  22.3 °C 53.6 °F /  12 °C 30.12in /  1019.9hPa Calm   4mph /  6.4km/h 52% 0.00in /  0mm 202 W/m2
19:24 72.1 °F /  22.3 °C 54.1 °F /  12.3 °C 30.13in /  1020.2hPa SSE 0.9mph /  1.4km/h 5mph /  8km/h 53% 0.00in /  0mm 163 W/m2
19:29 72 °F /  22.2 °C 53.4 °F /  11.9 °C 30.12in /  1019.9hPa SSE 2.9mph /  4.7km/h 5mph /  8km/h 52% 0.00in /  0mm 188 W/m2
19:34 72.3 °F /  22.4 °C 54.1 °F /  12.3 °C 30.13in /  1020.2hPa East 0.9mph /  1.4km/h 5mph /  8km/h 53% 0.00in /  0mm 188 W/m2
19:39 73 °F /  22.8 °C 54.3 °F /  12.4 °C 30.12in /  1019.9hPa NE 0.9mph /  1.4km/h 4mph /  6.4km/h 52% 0.00in /  0mm 163 W/m2
19:44 71.4 °F /  21.9 °C 53.4 °F /  11.9 °C 30.13in /  1020.2hPa SE 2.9mph /  4.7km/h 5mph /  8km/h 53% 0.00in /  0mm 142 W/m2
19:49 71.1 °F /  21.7 °C 54.1 °F /  12.3 °C 30.13in /  1020.2hPa ESE 4.9mph /  7.9km/h 5mph /  8km/h 55% 0.00in /  0mm 98 W/m2
19:54 71.4 °F /  21.9 °C 54.5 °F /  12.5 °C 30.13in /  1020.2hPa SE 2mph /  3.2km/h 4mph /  6.4km/h 55% 0.00in /  0mm 111 W/m2
19:59 71.4 °F /  21.9 °C 54.5 °F /  12.5 °C 30.13in /  1020.2hPa Calm   4mph /  6.4km/h 55% 0.00in /  0mm 97 W/m2
20:04 71.4 °F /  21.9 °C 54.5 °F /  12.5 °C 30.13in /  1020.2hPa SE 0.9mph /  1.4km/h 2mph /  3.2km/h 55% 0.00in /  0mm 77 W/m2
20:09 71.6 °F /  22 °C 54.5 °F /  12.5 °C 30.13in /  1020.2hPa Calm   4mph /  6.4km/h 55% 0.00in /  0mm 65 W/m2
20:14 71.2 °F /  21.8 °C 54.3 °F /  12.4 °C 30.13in /  1020.2hPa Calm   3mph /  4.8km/h 55% 0.00in /  0mm 47 W/m2
20:19 71.1 °F /  21.7 °C 54.5 °F /  12.5 °C 30.13in /  1020.2hPa Calm   1mph /  1.6km/h 56% 0.00in /  0mm 33 W/m2
20:24 71.1 °F /  21.7 °C 54.5 °F /  12.5 °C 30.13in /  1020.2hPa Calm   2mph /  3.2km/h 56% 0.00in /  0mm 39 W/m2
20:29 71.2 °F /  21.8 °C 54.7 °F /  12.6 °C 30.13in /  1020.2hPa SE 0.9mph /  1.4km/h 1mph /  1.6km/h 56% 0.00in /  0mm 30 W/m2
20:34 71.1 °F /  21.7 °C 54.5 °F /  12.5 °C 30.13in /  1020.2hPa ESE 4mph /  6.4km/h 4mph /  6.4km/h 56% 0.00in /  0mm 23 W/m2
20:39 70.7 °F /  21.5 °C 54.7 °F /  12.6 °C 30.12in /  1019.9hPa Calm   3mph /  4.8km/h 57% 0.00in /  0mm 19 W/m2
20:44 70.5 °F /  21.4 °C 55 °F /  12.8 °C 30.12in /  1019.9hPa East 2mph /  3.2km/h 3mph /  4.8km/h 58% 0.00in /  0mm 18 W/m2
20:49 70.3 °F /  21.3 °C 54.9 °F /  12.7 °C 30.12in /  1019.9hPa Calm     58% 0.00in /  0mm 14 W/m2
20:54 70.3 °F /  21.3 °C 54.9 °F /  12.7 °C 30.13in /  1020.2hPa Calm   1mph /  1.6km/h 58% 0.00in /  0mm 12 W/m2
20:59 70.2 °F /  21.2 °C 55.2 °F /  12.9 °C 30.13in /  1020.2hPa Calm     59% 0.00in /  0mm 11 W/m2
21:04 69.8 °F /  21 °C 54.9 °F /  12.7 °C 30.13in /  1020.2hPa Calm   1mph /  1.6km/h 59% 0.00in /  0mm 7 W/m2
21:09 69.6 °F /  20.9 °C 55 °F /  12.8 °C 30.13in /  1020.2hPa Calm   1mph /  1.6km/h 60% 0.00in /  0mm 5 W/m2
21:14 69.3 °F /  20.7 °C 54.9 °F /  12.7 °C 30.13in /  1020.2hPa Calm     60% 0.00in /  0mm 0 W/m2
21:19 68.7 °F /  20.4 °C 54.7 °F /  12.6 °C 30.13in /  1020.2hPa Calm     61% 0.00in /  0mm 0 W/m2
21:24 68.4 °F /  20.2 °C 54.9 °F /  12.7 °C 30.13in /  1020.2hPa Calm     62% 0.00in /  0mm 0 W/m2
21:29 68.2 °F /  20.1 °C 54.7 °F /  12.6 °C 30.13in /  1020.2hPa Calm     62% 0.00in /  0mm 0 W/m2
21:34 68 °F /  20 °C 54.9 °F /  12.7 °C 30.14in /  1020.5hPa Calm     63% 0.00in /  0mm 0 W/m2
21:39 67.8 °F /  19.9 °C 54.7 °F /  12.6 °C 30.14in /  1020.5hPa Calm     63% 0.00in /  0mm 0 W/m2
21:44 67.6 °F /  19.8 °C 54.7 °F /  12.6 °C 30.14in /  1020.5hPa Calm     63% 0.00in /  0mm 0 W/m2
21:49 67.5 °F /  19.7 °C 54.9 °F /  12.7 °C 30.14in /  1020.5hPa Calm     64% 0.00in /  0mm 0 W/m2
21:54 66.2 °F /  19 °C 54.1 °F /  12.3 °C 30.14in /  1020.5hPa SSE 2mph /  3.2km/h 7mph /  11.3km/h 65% 0.00in /  0mm 0 W/m2
21:59 65.8 °F /  18.8 °C 54.5 °F /  12.5 °C 30.14in /  1020.5hPa Calm   1mph /  1.6km/h 67% 0.00in /  0mm 0 W/m2
22:04 65.3 °F /  18.5 °C 54.5 °F /  12.5 °C 30.14in /  1020.5hPa SW 2.9mph /  4.7km/h 6mph /  9.7km/h 68% 0.00in /  0mm 0 W/m2
22:09 64.2 °F /  17.9 °C 54.3 °F /  12.4 °C 30.14in /  1020.5hPa Calm   4mph /  6.4km/h 70% 0.00in /  0mm 0 W/m2
22:14 63.9 °F /  17.7 °C 54.3 °F /  12.4 °C 30.14in /  1020.5hPa SW 2mph /  3.2km/h 2mph /  3.2km/h 71% 0.00in /  0mm 0 W/m2
22:19 63.1 °F /  17.3 °C 54 °F /  12.2 °C 30.14in /  1020.5hPa SW 2.9mph /  4.7km/h 4mph /  6.4km/h 72% 0.00in /  0mm 0 W/m2
22:24 63 °F /  17.2 °C 53.8 °F /  12.1 °C 30.14in /  1020.5hPa SW 0.9mph /  1.4km/h 4mph /  6.4km/h 72% 0.00in /  0mm 0 W/m2
22:29 62.6 °F /  17 °C 53.8 °F /  12.1 °C 30.14in /  1020.5hPa SW 2mph /  3.2km/h 4mph /  6.4km/h 73% 0.00in /  0mm 0 W/m2
22:34 62.4 °F /  16.9 °C 53.6 °F /  12 °C 30.14in /  1020.5hPa Calm   4mph /  6.4km/h 73% 0.00in /  0mm 0 W/m2
22:39 62.4 °F /  16.9 °C 53.6 °F /  12 °C 30.14in /  1020.5hPa SW 0.9mph /  1.4km/h 3mph /  4.8km/h 73% 0.00in /  0mm 0 W/m2
22:44 62.2 °F /  16.8 °C 53.4 °F /  11.9 °C 30.14in /  1020.5hPa Calm   2mph /  3.2km/h 73% 0.00in /  0mm 0 W/m2
22:49 62.1 °F /  16.7 °C 53.2 °F /  11.8 °C 30.14in /  1020.5hPa SW 0.9mph /  1.4km/h 3mph /  4.8km/h 73% 0.00in /  0mm 0 W/m2
22:54 61.7 °F /  16.5 °C 53.2 °F /  11.8 °C 30.14in /  1020.5hPa SW 0.9mph /  1.4km/h 5mph /  8km/h 74% 0.00in /  0mm 0 W/m2
22:59 61.7 °F /  16.5 °C 53.2 °F /  11.8 °C 30.14in /  1020.5hPa Calm     74% 0.00in /  0mm 0 W/m2
23:04 61.5 °F /  16.4 °C 53.2 °F /  11.8 °C 30.15in /  1020.9hPa SW 0.9mph /  1.4km/h 2mph /  3.2km/h 74% 0.00in /  0mm 0 W/m2
23:09 61.3 °F /  16.3 °C 53.1 °F /  11.7 °C 30.14in /  1020.5hPa Calm   2mph /  3.2km/h 74% 0.00in /  0mm 0 W/m2
23:14 61.2 °F /  16.2 °C 52.9 °F /  11.6 °C 30.14in /  1020.5hPa Calm     74% 0.00in /  0mm 0 W/m2
23:19 60.8 °F /  16 °C 52.5 °F /  11.4 °C 30.14in /  1020.5hPa Calm     74% 0.00in /  0mm 0 W/m2
23:24 60.6 °F /  15.9 °C 52.3 °F /  11.3 °C 30.14in /  1020.5hPa Calm   2mph /  3.2km/h 74% 0.00in /  0mm 0 W/m2
23:29 60.4 °F /  15.8 °C 52.5 °F /  11.4 °C 30.14in /  1020.5hPa Calm   1mph /  1.6km/h 75% 0.00in /  0mm 0 W/m2
23:34 60.3 °F /  15.7 °C 52.3 °F /  11.3 °C 30.14in /  1020.5hPa Calm     75% 0.00in /  0mm 0 W/m2
23:39 60.3 °F /  15.7 °C 52.3 °F /  11.3 °C 30.14in /  1020.5hPa Calm     75% 0.00in /  0mm 0 W/m2
23:44 60.3 °F /  15.7 °C 52.3 °F /  11.3 °C 30.14in /  1020.5hPa Calm     75% 0.00in /  0mm 0 W/m2
23:49 60.3 °F /  15.7 °C 52.3 °F /  11.3 °C 30.14in /  1020.5hPa Calm     75% 0.00in /  0mm 0 W/m2
23:54 60.3 °F /  15.7 °C 52.3 °F /  11.3 °C 30.14in /  1020.5hPa Calm     75% 0.00in /  0mm 0 W/m2
23:59 60.1 °F /  15.6 °C 52.5 °F /  11.4 °C 30.14in /  1020.5hPa Calm     76% 0.00in /  0mm 0 W/m2
Bath Spa Weather
Compliments of Weather Underground - 2 mb